Regional Weather Roundup
Issued by NWS Cleveland, OH

Home | Current Version | Previous Version | Text Only | Print | Product List | Glossary Off
Versions: 1 2 3 4 5 6 7 8 9 10 11 12 13 14 15 16 17 18 19 20 21 22 23 24 25 26 27 28 29 30 31 32 33 34 35 36 37 38 39 40 41 42 43 44 45 46 47 48 49 50

000
ASUS41 KCLE 191710
RWRCLE
OHIO REGIONAL WEATHER ROUNDUP
NATIONAL WEATHER SERVICE WILMINGTON, OH
1200 PM EST FRI DEC 19 2014

NOTE: "FAIR" INDICATES FEW OR NO CLOUDS BELOW 12,000 FEET WITH NO
SIGNIFICANT WEATHER AND/OR OBSTRUCTIONS TO VISIBILITY.

OHZ001>008-015>018-024>027-034-035-043-044-191800-
   NORTHWEST OHIO

CITY           SKY/WX    TMP DP  RH WIND       PRES   REMARKS
DEFIANCE       CLOUDY    30  25  81 SW3       30.27F
FINDLAY        CLOUDY    30  25  81 W7        30.26F WCI  23
TOLEDO EXPRESS CLOUDY    30  25  81 W3        30.27S HAZE
TOLEDO METCALF CLOUDY    30  25  81 E5        30.28F WCI  25
LIMA           CLOUDY    31  24  75 W6        30.26F HAZE    WCI  25
$$

OHZ009>014-019>023-028>033-038-089-191800-
   NORTHEAST OHIO

CITY           SKY/WX    TMP DP  RH WIND       PRES   REMARKS
CLE-HOPKINS    CLOUDY    32  23  69 N10       30.26F WCI  24
CLE-LAKEFRONT  PTSUNNY   33  23  66 NW8       30.24F WCI  26
CUY CO. ARPT   CLOUDY    34  25  69 N9        30.23F WCI  26
LORAIN-ELYRIA  CLOUDY    30  23  75 N6        30.25F WCI  24
ASHTABULA      CLOUDY    30  22  72 NW7       30.21F WCI  23
AKRON-CANTON   FLURRIES  30  25  81 NW8       30.21F WCI  22
WOOSTER        CLOUDY    29  25  85 NW7       30.23S WCI  22
MANSFIELD      CLOUDY    28  26  92 W3        30.23F FOG
YOUNGSTOWN     CLOUDY    30  24  78 W7        30.19F WCI  23
$$

OHZ042-051>053-060>062-070>072-077>081-191800-
  SOUTHWEST OHIO

CITY           SKY/WX    TMP DP  RH WIND       PRES   REMARKS
CINC-COVINGTON CLOUDY    29  19  66 VRB3      30.27F
CINC-LUNKEN    CLOUDY    30  21  69 E3        30.31F
HAMILTON       CLOUDY    30  22  72 CALM      30.30F
DAYTON         CLOUDY    29  22  75 VRB3      30.28F
WRIGHT-PAT AFB CLOUDY    29  21  73 VRB2      30.28F
DAYTON GENERAL CLOUDY    29  21  72 CALM      30.27F
WILMINGTON     CLOUDY    30  21  69 N3        30.25F
$$

OHZ036-037-039>041-045>050-054>059-063>069-073>076-082>088-191800-
  CENTRAL AND SOUTHEAST OHIO

CITY           SKY/WX    TMP DP  RH WIND       PRES   REMARKS
COLUMBUS       CLOUDY    29  23  78 CALM      30.26F HAZE
OSU AIRPORT    CLOUDY    29  23  78 CALM      30.25F HAZE
BOLTON FIELD   CLOUDY    28  25  86 CALM      30.26F
RICKENBACK AFB CLOUDY    29  23  77 SW5       30.26F WCI  24
NEWARK         CLOUDY    30  24  78 W3        30.25F
MARION         CLOUDY    28  24  85 W7        30.26F FOG     WCI  21
LANCASTER      CLOUDY    30  23  75 W5        30.26F WCI  25
ZANESVILLE     CLOUDY    29  23  78 W5        30.25F WCI  24
NEW PHILLY     CLOUDY    31  26  82 W6        30.24F HAZE    WCI  25
$$


USA.gov is the U.S. government's official web portal to all federal, state and local government web resources and services.